Regional Weather Roundup
Issued by NWS

Home | Current Version | Previous Version | Graphics & Text | Print | Product List | Glossary On
Versions: 1 2 3 4 5 6 7 8 9 10 11 12 13 14 15 16 17 18 19 20 21 22 23 24 25 26 27 28 29 30 31 32 33 34 35 36 37 38 39 40 41 42 43 44 45 46 47 48 49 50
731
ASUS43 KDMX 270306
RWRIA

WEATHER ROUNDUP FOR IOWA
NATIONAL WEATHER SERVICE DES MOINES IA
1000 PM CDT SUN MAR 26 2017

NOTE: "FAIR" INDICATES FEW OR NO CLOUDS BELOW 12,000 FEET WITH NO
SIGNIFICANT WEATHER AND/OR OBSTRUCTIONS TO VISIBILITY.

* - THESE STATIONS ARE NOT NWS STATIONS...THUS NOT UNDER NWS
QUALITY CONTROL.  THEY ALSO DO NOT REPORT WEATHER SUCH
AS PRECIPITATION OR FOG.

IAZ001>003-012>014-020>022-031>034-043>046-270400-
   NORTHWEST IOWA

CITY           SKY/WX    TMP DP  RH WIND       PRES   REMARKS
CARROLL *      CLOUDY    45  45 100 CALM      29.97R
CHEROKEE *     CLOUDY    43  41  91 N3        29.97S
LE MARS *      CLOUDY    45  41  87 N3        29.98S
ORANGE CITY *  CLOUDY    43  39  87 CALM      29.97S
SHELDON *      CLOUDY    41  41 100 N6        29.96S
SIOUX CITY     CLOUDY    47  41  80 N5        29.98R
SPENCER        CLOUDY    42  39  89 NW5       29.97R
STORM LAKE *   CLOUDY    43  39  87 N3        29.96S
$$

IAZ055>058-069>071-079>083-090>094-270400-
   SOUTHWEST IOWA

CITY           SKY/WX    TMP DP  RH WIND       PRES   REMARKS
ATLANTIC *     CLOUDY    46  43  87 NW5       29.96F
AUDUBON *      CLOUDY    45  41  87 CALM      29.98R
CLARINDA *     CLOUDY    48  45  87 N3        29.98F
COUNCIL BLFS * CLOUDY    46  46 100 CALM      29.96S
CRESTON *      CLOUDY    45  45 100 W6        29.97R FOG
HARLAN  *      CLOUDY    45  45 100 CALM      30.00R
LAMONI         CLOUDY    47  44  90 W3        29.96R
RED OAK *      CLOUDY    46  45  93 N5        29.96F
SHENANDOAH *   CLOUDY    46  45  93 CALM      29.97S
$$

IAZ047>049-059>061-072>074-084-270400-
   CENTRAL IOWA

CITY           SKY/WX    TMP DP  RH WIND       PRES   REMARKS
AMES           CLOUDY    44  44 100 NW3       29.95S
ANKENY *       CLOUDY    45  43  93 NW3       29.97R FOG
BOONE *        CLOUDY    45  45 100 NW5       29.95R
CHARITON *     CLOUDY    46  45  93 CALM      29.95S
DES MOINES     DRIZZLE   46  44  93 W3        29.96R FOG
GRINNELL*      CLOUDY    45  43  95 W5        29.96S
KNOXVILLE *    CLOUDY    45  45 100 CALM      29.94S FOG
MARSHALLTOWN   CLOUDY    45  43  93 CALM      29.94R
NEWTON *       CLOUDY    45  43  93 W3        29.94S FOG
PELLA *        CLOUDY    45  44  96 SW3       29.96S
PERRY *        CLOUDY    45  43  94 CALM      29.96S
$$

IAZ004>006-015-016-023>025-035-036-270400-
   NORTH CENTRAL IOWA

CITY           SKY/WX    TMP DP  RH WIND       PRES   REMARKS
ALGONA *       CLOUDY    41  41 100 NW3       29.97R
CLARION *      CLOUDY    43  43 100 NW9       29.96R
ESTHERVILLE    CLOUDY    39  39 100 W3        29.96R
FORT DODGE *   CLOUDY    43  37  81 CALM      29.96S
MASON CITY     CLOUDY    41  40  96 N8        29.94S FOG
FOREST CITY *  CLOUDY    39  39 100 N7        29.94R WCI  34
WEBSTER CITY * CLOUDY    43  41  93 NW8       29.94R
IOWA FALLS *   CLOUDY    44  42  92 CALM      29.94S
$$

IAZ007>011-017>019-026>030-037>042-050>054-066-270400-
   NORTHEAST IOWA

CITY           SKY/WX    TMP DP  RH WIND       PRES   REMARKS
CEDAR RAPIDS   CLOUDY    45  45 100 W3        29.92R
CHARLES CITY * CLOUDY    43  43 100 NW3       29.94S
CLINTON *      CLOUDY    48  47  96 NW9       29.92R
DECORAH *      CLOUDY    41  39  93 CALM      29.92R FOG
DUBUQUE        CLOUDY    44  43  96 NW6       29.91S FOG
MONTICELLO *   CLOUDY    46  45  93 NW6       29.91S
OELWEIN *      CLOUDY    43  43 100 NW6       29.93R
WATERLOO       CLOUDY    44  41  89 NW6       29.93R
$$

IAZ064-065-067-068-078-270400-
   EAST CENTRAL IOWA

CITY           SKY/WX    TMP DP  RH WIND       PRES   REMARKS
DAVENPORT      CLOUDY    48  46  93 W7        29.93R
IOWA CITY      CLOUDY    48  45  89 W6        29.95R
MUSCATINE *    CLOUDY    48  46  93 W7        29.94S
QUAD CITIES    CLOUDY    50  46  86 W9        29.92S
$$

IAZ062-063-075>077-085>089-095>099-270400-
   SOUTHEAST IOWA

CITY           SKY/WX    TMP DP  RH WIND       PRES   REMARKS
BURLINGTON     CLOUDY    48  47  96 W3        29.94S
FAIRFIELD *    CLOUDY    46  46 100 W5        29.95R FOG
FORT MADISON * CLOUDY    48  46  93 CALM      29.96S FOG
KEOKUK *       CLOUDY    48  46  93 SW6       29.95R
OSKALOOSA *    CLOUDY    45  44  98 CALM      29.96R FOG
OTTUMWA        CLOUDY    46  46 100 NW5       29.95S FOG
WASHINGTON *   CLOUDY    46  46 100 SW5       29.96R
$$

ABBREVIATIONS USED IN REMARKS
   TC - TEMPERATURES IN CELSIUS
  WCI - WIND CHILL INDEX
   HX - HEAT INDEX
  VSB - VISIBILITY
$$





USA.gov is the U.S. government's official web portal to all federal, state and local government web resources and services.